Theta_e
350 350 352 350 350 350 351 352 351 351 350 349 348 348 348 350 348 351 353 352 352 351 351 351 352 355 354 355 355 356 358 359 360 360 358 358 359 359 358 357 356 355 356 356 358 357 355 354 354 356 356 355 354 353 350 349 349 349 350 348 346 347 345 343 340 341 346 352 353 354 356 356 353 354 352 352 352 352 353 351 351 349 348 351 352
352 351 352 351 349 350 351 351 352 351 350 349 348 347 347 347 348 349 350 351 351 352 351 353 353 353 353 354 354 355 357 358 359 359 358 358 358 361 359 357 356 356 354 354 356 359 355 352 352 352 354 353 351 352 351 351 349 349 347 350 346 345 346 344 343 341 342 345 347 351 351 357 351 354 352 352 352 355 351 351 353 351 348 354 351
353 352 351 351 350 351 351 351 351 351 350 350 349 348 348 347 348 348 349 350 351 352 352 351 352 353 352 353 353 353 354 357 358 358 358 358 357 359 359 356 354 353 351 353 357 354 351 350 351 352 353 349 350 351 351 349 351 350 351 350 346 346 348 348 344 342 342 342 344 346 348 351 350 349 352 353 354 353 350 351 352 354 359 356 354
352 351 351 351 351 350 350 351 351 351 350 350 349 348 345 344 346 347 349 350 349 351 352 351 351 353 353 353 353 353 353 355 356 357 356 357 357 357 353 351 351 350 350 350 351 352 349 348 349 353 351 347 347 347 347 348 347 348 349 349 349 349 349 348 347 344 341 339 341 344 347 346 346 351 353 353 351 352 352 353 355 355 354 354 353
348 348 347 345 345 346 350 351 350 351 350 350 349 346 345 345 348 345 343 343 345 346 350 351 350 352 353 353 354 354 355 355 354 355 356 357 357 356 352 350 349 349 349 349 357 353 350 348 348 350 348 345 346 346 346 346 348 349 349 349 350 349 349 347 346 344 341 339 340 342 345 346 349 350 351 348 350 351 351 350 353 354 355 354 358
347 349 349 348 347 346 346 348 350 350 350 350 349 351 348 348 349 348 345 346 348 346 344 348 351 351 352 353 354 355 355 354 353 353 353 353 354 353 353 351 350 349 349 349 350 353 350 348 348 349 347 345 345 346 346 347 348 350 352 350 350 349 346 346 347 345 343 341 340 341 342 346 346 346 348 349 348 349 349 349 350 352 353 352 353
347 348 349 348 349 350 350 349 350 351 352 351 354 354 351 349 351 352 351 348 346 346 348 350 351 350 351 352 353 354 354 355 354 352 352 351 351 351 350 349 348 349 349 349 352 353 350 349 348 349 348 347 346 346 346 347 352 351 352 352 351 349 347 346 346 346 345 344 344 344 345 346 346 345 346 349 351 351 347 346 346 348 350 347 349
347 346 346 347 349 351 350 350 350 348 352 353 356 356 359 358 356 356 355 352 352 350 349 350 351 352 350 351 356 355 353 353 353 352 351 350 350 349 348 348 348 347 346 349 352 353 351 350 349 349 348 347 346 346 347 345 346 348 349 347 348 347 346 347 347 345 343 344 343 343 341 342 343 345 349 347 344 342 347 348 345 346 348 345 348
347 346 346 346 347 349 349 348 351 352 356 356 356 357 358 357 357 357 357 356 357 354 354 350 350 352 353 353 354 354 353 352 353 355 352 350 351 350 349 349 348 346 346 348 349 352 350 350 351 351 353 357 357 355 354 355 351 349 350 347 346 344 344 345 346 345 344 343 344 345 344 344 344 344 344 342 343 343 344 346 347 348 348 347 348
347 346 344 343 347 352 354 358 356 356 355 355 355 356 357 357 358 357 356 356 355 356 353 352 352 352 352 349 346 343 341 343 346 347 351 356 353 354 353 352 349 346 345 345 347 351 351 350 353 359 359 360 361 360 360 360 361 358 354 349 348 347 346 346 345 345 343 343 344 345 344 345 345 345 344 345 347 346 346 345 344 345 344 344 346
349 350 349 349 348 350 351 355 356 355 355 354 353 353 353 355 354 353 354 354 354 356 352 350 351 352 348 341 337 335 334 335 336 335 336 344 353 351 353 351 348 348 349 347 346 351 350 350 348 356 358 360 356 358 356 356 357 358 358 358 357 353 348 348 348 346 342 343 345 346 346 346 348 348 347 347 347 345 344 344 344 344 343 342 341
346 344 345 347 347 346 349 350 350 351 353 353 353 352 353 352 351 352 352 353 353 353 352 351 351 345 338 335 331 328 327 329 326 330 334 335 343 349 349 353 351 350 350 350 350 351 349 350 350 351 349 352 350 343 347 351 350 351 354 356 356 355 351 348 346 345 346 346 343 344 345 344 347 348 347 345 344 344 344 343 342 343 344 343 343
342 343 344 343 343 344 344 344 344 344 346 349 350 351 350 348 347 348 349 352 350 348 348 350 344 337 333 329 326 325 324 325 324 326 329 330 333 346 345 350 349 349 350 349 348 344 344 342 347 349 345 345 340 333 333 334 340 347 351 353 354 352 343 342 346 348 348 345 344 343 345 346 343 345 349 348 349 343 344 343 344 345 345 343 344
342 343 344 343 343 344 344 344 345 345 344 345 346 346 345 343 344 347 347 348 346 347 347 340 336 332 328 325 323 323 323 323 322 324 325 328 331 338 342 348 351 348 347 344 343 345 345 345 345 337 332 331 331 330 329 328 332 337 341 343 345 349 343 341 342 344 344 345 344 341 344 347 344 346 349 349 345 344 343 342 344 343 343 343 346
342 343 343 343 343 343 342 343 344 343 342 342 343 343 342 341 343 347 348 348 347 346 344 339 334 330 327 324 323 320 319 319 320 323 324 328 333 345 343 348 346 344 343 343 343 343 344 341 335 330 327 328 331 331 329 331 332 336 336 335 337 340 335 334 333 337 340 339 339 340 341 343 344 345 346 348 347 347 346 344 345 345 347 348 347
339 341 340 342 342 343 342 341 340 341 341 341 342 342 343 343 344 345 345 344 344 344 342 335 329 326 325 324 322 320 320 316 318 321 323 328 340 350 348 344 340 340 342 343 343 338 330 328 328 329 328 327 329 328 332 334 329 329 330 331 335 335 332 337 331 335 339 335 337 339 338 336 334 337 338 338 342 344 346 348 347 345 342 340 339
339 340 340 341 343 342 342 341 341 340 340 340 340 341 343 344 344 345 341 339 338 336 333 330 330 327 325 324 321 319 319 316 314 316 319 323 335 340 342 342 342 341 342 342 339 333 332 331 330 330 328 327 326 321 326 332 326 328 329 331 332 331 329 330 331 334 332 329 328 329 329 329 329 328 327 330 338 342 343 341 338 340 338 336 337
340 340 340 342 342 342 342 341 340 340 339 338 338 337 338 339 339 339 335 333 331 331 330 329 329 329 327 324 323 319 317 316 312 312 315 321 333 336 337 336 337 341 341 339 338 339 340 340 336 329 328 327 321 321 325 330 326 329 331 330 329 328 327 328 331 337 336 334 332 331 331 331 331 332 332 331 332 337 333 330 332 336 336 335 333
338 339 340 341 341 340 340 340 339 338 337 336 335 334 334 334 335 334 332 331 331 331 331 328 327 328 328 326 325 318 318 317 312 311 313 317 327 329 330 328 327 329 335 337 337 337 337 338 336 331 327 323 316 317 321 330 326 328 330 328 327 327 326 326 331 336 335 333 333 334 333 333 332 330 332 334 335 335 330 329 330 332 332 330 328
340 340 341 341 341 341 340 340 338 337 335 335 335 334 335 333 332 331 330 329 328 327 327 325 324 324 325 324 322 320 318 318 317 310 311 313 318 326 324 324 324 324 326 327 325 327 331 334 331 322 319 316 313 312 315 321 327 328 329 327 326 326 326 327 338 336 334 333 330 330 331 332 331 330 328 329 331 332 329 329 327 329 328 324 324
340 340 340 340 340 339 339 338 337 336 336 334 335 334 333 331 330 328 326 326 325 324 324 324 323 323 323 323 322 322 322 319 319 311 310 311 315 320 320 321 321 320 321 324 322 324 326 328 331 327 316 314 311 310 311 317 329 329 326 325 326 326 326 331 335 336 331 330 329 329 329 329 330 331 330 329 329 329 329 328 328 326 326 324 321
340 339 338 339 339 338 338 337 337 336 336 334 332 331 331 330 328 326 325 324 323 322 323 324 321 321 321 322 322 321 327 329 323 318 313 311 311 317 322 323 325 323 323 323 324 325 325 327 330 327 314 313 310 309 311 318 325 330 324 318 321 327 337 337 333 332 331 329 328 328 328 328 328 328 330 330 329 331 326 326 327 328 328 325 322
338 337 337 337 337 336 336 337 336 336 335 333 331 329 330 329 328 328 325 324 322 321 321 321 321 320 321 321 322 323 323 327 328 326 319 313 312 314 316 321 321 326 322 324 324 325 327 327 330 326 314 312 312 315 317 320 326 321 317 319 321 326 335 334 333 329 328 328 328 327 328 326 325 323 325 326 327 330 329 328 328 327 329 331 329
336 336 337 335 335 336 336 336 335 334 334 333 332 330 329 329 330 329 327 326 323 321 320 321 321 321 322 322 323 322 320 319 325 326 324 316 313 312 314 315 318 322 325 323 326 326 325 326 325 313 311 309 311 314 316 322 321 313 317 321 325 330 329 329 327 328 328 325 325 324 324 324 322 322 323 324 326 326 327 328 327 327 326 326 327
320 321 325 330 328 324 323 324 328 332 333 333 332 332 331 331 329 328 329 327 324 323 322 324 322 322 319 318 317 317 317 316 316 322 324 323 317 314 316 318 318 318 327 326 328 326 320 314 312 313 314 314 316 319 320 321 317 318 319 323 332 325 325 325 325 324 323 322 322 322 322 324 323 323 322 322 325 326 326 324 325 326 327 331 329
318 318 320 320 320 321 319 319 319 320 320 320 321 320 323 323 321 320 322 325 326 326 325 323 320 319 316 316 316 315 315 314 314 314 319 320 319 319 318 320 327 327 327 324 325 320 316 315 317 318 321 324 328 328 327 326 324 325 325 328 323 324 323 323 323 322 321 322 322 321 322 322 321 323 325 324 321 321 324 323 321 322 322 323 321
319 317 317 318 318 317 316 315 315 316 316 317 317 317 317 316 317 319 318 319 321 323 325 324 321 319 317 316 315 315 314 312 312 312 311 311 312 314 316 317 323 324 323 323 327 328 327 327 322 320 321 326 328 329 327 327 325 322 320 320 321 322 324 323 322 321 322 321 321 320 321 322 323 323 321 320 319 319 322 324 320 319 321 321 320
314 313 316 318 318 318 319 323 316 312 312 313 313 314 314 314 312 312 312 314 315 316 319 319 320 319 315 315 315 315 314 313 311 309 310 309 309 310 313 314 312 314 317 318 323 329 326 329 325 327 325 323 322 321 321 322 323 321 318 318 318 320 322 324 323 319 319 319 319 318 318 317 316 317 318 317 317 317 318 320 321 318 319 318 316
320 315 314 315 317 318 314 313 312 310 309 309 307 307 309 312 312 310 309 305 311 314 314 315 317 315 315 314 313 314 314 313 313 305 307 303 303 305 309 308 308 314 318 314 322 322 322 321 320 319 319 319 319 318 319 318 317 316 315 314 314 314 315 314 314 314 315 314 314 313 312 312 312 313 314 313 314 314 314 314 315 314 314 314 313
318 316 314 313 314 315 314 312 312 312 309 309 308 308 308 300 302 311 311 312 306 306 310 312 314 313 311 312 313 312 312 313 306 298 295 294 296 297 298 299 300 309 315 316 321 317 317 316 316 316 316 315 315 315 315 315 315 313 312 314 313 312 313 313 312 313 315 313 312 311 310 310 308 309 310 311 310 310 312 312 310 310 309 309 308
319 318 319 317 318 317 314 312 311 309 309 309 309 310 307 307 297 297 304 306 300 297 299 303 307 312 319 311 309 305 305 300 295 293 294 295 295 296 298 300 301 305 310 316 316 314 314 314 314 315 315 314 314 313 313 313 314 313 311 310 310 312 312 311 310 313 313 311 311 311 309 308 307 308 308 309 309 307 308 309 308 307 306 307 306
318 319 319 321 324 321 314 316 315 313 311 310 310 309 307 307 306 300 296 299 298 295 295 296 298 303 308 313 316 309 302 296 294 296 297 297 296 297 299 301 301 303 305 310 315 311 311 311 311 312 313 313 313 314 312 310 311 311 310 310 309 311 309 309 308 310 310 308 308 308 307 307 306 308 307 308 308 305 306 305 304 304 305 305 306
322 321 322 325 324 326 320 319 320 316 315 315 314 311 308 308 306 307 307 299 296 294 294 294 294 294 295 299 303 304 303 298 296 296 296 295 296 299 299 299 300 302 307 311 310 310 310 310 309 310 310 310 310 310 311 310 309 309 310 310 309 308 309 308 308 310 309 307 306 305 304 304 305 305 306 306 305 302 304 303 302 303 303 302 305
319 320 320 322 322 320 321 321 319 317 318 315 314 313 315 313 308 309 309 309 309 304 298 295 294 297 295 293 293 294 293 294 295 296 296 296 298 301 303 306 300 301 306 311 310 309 310 309 310 309 309 311 310 311 310 311 311 309 309 309 308 308 308 307 305 305 305 304 303 304 303 302 303 301 301 302 302 302 301 303 301 301 300 301 301
320 330 333 334 320 322 322 322 321 321 319 319 320 322 322 319 317 315 310 311 311 309 309 311 301 294 301 302 294 292 291 291 293 294 296 297 299 298 304 312 311 310 310 311 311 309 310 309 309 309 307 308 309 309 308 306 306 307 307 309 307 305 305 305 304 303 302 301 301 301 302 301 300 302 301 300 299 299 300 301 300 301 300 301 302
318 316 318 324 324 321 321 323 321 322 322 322 323 324 326 324 322 318 316 317 316 313 313 308 309 309 301 295 290 291 291 292 291 296 297 298 301 306 312 310 310 311 311 310 311 312 311 309 309 307 307 307 308 307 307 306 306 305 305 307 306 304 303 303 303 301 301 300 301 301 299 298 299 299 298 299 299 299 298 300 299 301 302 301 302
315 314 315 316 318 321 322 321 317 318 325 322 320 321 326 326 327 322 321 318 318 316 310 308 307 311 311 320 307 293 293 293 295 299 301 302 302 313 312 312 310 311 312 310 311 311 308 308 308 307 307 306 305 304 306 305 304 305 308 306 305 304 303 302 302 302 299 298 297 298 297 296 296 297 297 296 298 298 299 300 299 300 301 302 302
314 313 313 315 315 315 316 317 322 328 325 323 319 319 322 319 322 326 324 320 321 318 311 309 314 309 308 309 323 318 316 308 306 305 306 306 311 314 313 314 313 311 310 311 311 309 308 306 306 305 305 304 303 303 303 303 303 302 303 303 305 305 306 303 303 299 300 297 296 296 297 296 295 295 297 295 296 297 297 299 297 296 298 300 300
317 321 324 324 321 310 313 320 320 318 319 319 320 322 321 317 318 317 316 320 322 319 316 311 311 310 309 311 313 321 314 310 310 311 314 315 314 313 313 312 311 311 312 311 312 309 306 307 308 306 305 304 304 303 302 302 302 302 301 301 299 299 299 297 297 297 297 295 295 295 295 295 295 294 295 294 295 296 295 296 296 296 295 296 297
316 316 320 326 321 320 323 323 321 318 321 316 318 319 320 317 315 315 314 315 316 317 315 313 312 312 312 314 314 313 312 314 313 314 314 313 313 312 312 313 311 310 309 308 308 307 307 305 304 304 303 303 302 302 302 303 303 303 302 300 298 297 297 296 295 295 295 297 295 294 294 294 295 296 293 295 296 295 295 295 296 297 296 297 298
315 318 328 322 320 317 324 320 316 315 317 318 317 317 318 318 318 318 315 316 318 319 317 315 313 314 315 311 308 310 314 316 316 316 316 318 314 312 310 310 311 310 310 309 307 307 305 304 304 303 303 302 302 302 301 301 302 301 301 301 299 299 297 296 296 296 295 296 295 294 294 294 296 294 293 295 298 296 296 297 296 295 297 298 298
313 313 316 319 319 318 319 320 320 323 318 318 314 315 319 318 315 315 317 318 320 317 315 313 311 309 302 299 300 302 310 314 313 313 316 314 312 311 310 307 307 307 307 307 307 306 305 304 303 302 302 302 302 301 301 300 300 299 299 299 299 299 298 298 298 296 295 294 295 295 294 297 297 297 296 297 294 293 295 296 296 296 296 297 298
317 315 317 319 316 317 316 315 315 312 313 313 315 324 322 314 313 315 316 317 317 316 314 312 311 311 308 305 307 308 310 310 317 311 310 309 309 310 309 307 306 306 306 306 305 304 304 303 302 302 302 301 301 301 300 300 301 300 299 299 298 298 298 297 296 296 295 294 294 296 295 295 296 293 293 295 294 295 295 296 296 296 297 297 297
314 316 318 320 322 318 317 313 313 314 315 318 317 316 316 313 311 311 311 312 313 314 313 313 312 310 309 307 307 308 308 307 307 308 309 310 308 307 306 305 305 305 305 304 304 303 303 302 302 302 302 302 302 301 301 301 300 300 300 299 300 298 296 296 295 293 294 293 294 294 293 295 295 292 294 296 294 295 295 296 296 296 297 297 298
311 312 314 312 316 312 313 315 314 313 315 312 310 312 316 310 310 310 311 311 313 312 312 314 314 312 310 309 309 308 307 308 310 311 306 305 305 305 305 305 304 304 303 304 303 303 304 304 303 302 301 300 300 300 299 299 299 298 297 295 293 293 293 293 293 295 294 293 293 293 294 294 291 291 293 294 296 295 295 296 296 298 297 297 297
312 312 314 312 315 314 312 312 317 309 307 306 307 307 309 308 309 311 311 310 311 310 310 310 311 310 310 308 308 308 306 306 306 306 306 305 304 303 303 303 303 303 304 304 305 305 305 304 303 301 300 299 299 298 298 297 296 295 294 294 294 293 293 293 295 295 293 292 292 292 293 293 292 294 296 295 295 296 296 297 297 298 297 297 298
311 313 313 314 311 311 312 311 309 307 305 306 307 307 306 307 308 311 314 311 310 310 308 307 307 307 307 308 307 306 307 306 305 305 304 304 304 303 303 303 303 303 303 303 304 303 303 302 301 301 299 298 297 295 294 293 293 294 294 291 291 292 291 293 294 293 293 294 293 291 291 291 293 293 295 296 296 296 297 297 297 297 297 298 298
310 311 309 309 309 309 310 309 311 317 308 308 306 308 309 309 309 310 310 311 309 309 307 307 306 306 308 306 307 306 306 305 305 305 304 303 302 302 302 302 302 302 302 302 302 302 301 300 300 300 299 298 297 295 293 292 291 291 291 291 290 290 291 292 292 291 291 291 292 292 291 290 292 293 295 296 295 296 296 296 297 298 298 298 298
309 308 308 309 310 309 309 311 311 305 306 308 309 308 307 306 306 305 306 307 307 307 307 306 305 305 305 306 306 305 306 306 303 302 303 302 302 302 302 302 303 302 302 300 300 300 299 299 300 299 298 296 295 295 294 293 291 291 291 289 291 295 291 292 292 290 291 292 291 290 290 290 292 294 295 295 295 296 296 297 297 298 298 299 298
310 311 310 309 309 306 308 307 305 303 306 305 305 306 306 306 304 304 304 303 303 304 304 305 305 304 305 305 305 305 304 303 302 301 302 302 302 301 301 300 300 300 300 298 299 298 297 297 297 297 297 296 295 294 294 293 292 292 291 290 294 291 289 291 293 293 290 289 289 289 289 291 291 293 294 294 294 295 296 298 298 298 298 297 297
311 311 310 308 307 306 304 302 302 303 302 302 301 301 302 300 301 302 303 302 302 303 303 302 303 302 302 303 305 304 303 302 303 302 301 301 301 301 301 300 300 298 297 297 296 296 296 296 296 297 297 297 296 295 293 292 292 291 293 294 292 288 287 288 290 289 290 289 288 290 291 292 292 292 293 294 295 296 298 299 297 297 297 297 297
Wind_Speed
11 10 9 10 9 8 8 7 8 7 7 6 7 6 7 6 6 7 6 6 7 6 6 6 7 7 8 7 7 7 7 7 6 6 6 6 6 6 6 5 5 5 4 5 3 4 4 4 4 3 3 4 4 2 2 3 2 1 2 2 3 3 4 4 4 7 5 3 4 3 3 3 3 1 4 5 5 5 5 4 4 3 3 4 4
11 9 8 8 9 8 8 7 7 7 8 8 8 8 8 7 8 7 7 7 6 7 5 2 3 6 8 8 7 7 7 7 8 6 6 6 6 5 6 5 4 3 2 3 3 2 3 3 3 4 4 2 2 0 1 1 1 2 3 2 3 3 4 4 5 4 5 2 3 3 3 0 3 2 3 5 6 5 6 5 5 4 4 2 3
8 7 7 6 7 7 8 8 8 8 9 8 8 9 8 9 9 8 8 8 6 7 7 8 7 7 7 7 7 7 6 7 7 6 6 7 7 6 5 5 5 4 3 2 1 1 2 1 1 2 2 2 3 2 2 3 3 3 3 3 4 5 4 5 3 4 6 6 4 3 2 2 2 5 4 3 4 4 5 5 4 3 0 1 2
4 3 2 1 5 7 7 9 10 10 10 9 9 7 6 6 6 9 9 9 8 7 9 9 9 8 8 8 8 7 7 6 6 7 7 7 6 6 5 5 5 4 3 3 3 3 3 3 4 3 3 4 4 3 3 4 4 4 5 5 4 4 4 3 4 5 3 4 3 3 2 2 4 4 4 4 4 5 3 4 3 3 2 1 1
5 6 8 7 6 10 7 9 9 10 10 9 9 5 4 3 3 3 2 3 2 3 4 6 9 8 9 9 8 8 8 7 6 5 5 6 7 6 5 4 5 4 4 4 4 4 4 4 3 2 2 3 3 4 4 3 4 4 5 5 3 3 2 3 3 3 4 5 5 3 2 3 4 5 3 4 5 4 3 3 3 4 4 2 2
4 4 4 7 8 6 8 10 10 11 10 8 7 5 3 2 2 2 3 2 2 2 3 4 4 6 8 9 9 9 8 7 6 6 6 5 5 5 5 5 5 5 4 4 4 4 3 4 5 5 5 5 5 4 4 5 4 4 5 3 3 2 2 3 3 3 4 5 3 5 2 4 3 3 3 3 5 6 6 5 4 4 3 4 3
3 7 6 6 7 9 8 4 10 5 7 6 4 3 3 2 2 2 2 3 3 2 2 2 1 5 6 5 6 7 7 7 7 7 6 6 6 6 5 4 3 4 3 3 4 4 4 5 5 6 6 6 6 5 3 3 3 4 3 3 2 2 2 3 3 4 4 4 3 4 5 4 3 5 4 2 3 3 4 6 6 3 2 2 4
6 6 7 8 7 8 9 9 5 9 5 3 3 3 3 3 3 2 2 3 2 2 1 1 0 1 2 3 0 1 1 1 1 4 5 6 6 5 4 4 1 7 7 5 6 5 5 5 6 6 6 5 4 3 2 2 2 3 3 2 2 2 3 4 4 4 5 4 4 6 3 4 5 3 3 3 4 4 3 4 6 7 6 2 3
7 6 7 8 7 7 7 9 10 11 7 5 4 4 4 4 4 3 2 2 1 0 1 3 3 4 4 5 5 5 5 4 3 2 1 2 3 4 3 3 6 6 7 5 3 2 3 4 4 4 4 6 7 5 5 4 2 3 3 2 3 3 4 3 4 4 4 4 7 5 6 6 5 5 6 4 5 7 4 1 4 5 6 7 7
6 6 6 7 6 5 6 7 8 7 5 5 5 4 4 3 3 3 3 3 1 1 1 2 3 5 6 5 5 5 4 3 5 8 7 2 1 2 3 5 6 4 2 4 6 3 2 2 3 8 8 8 7 5 4 4 5 3 2 2 3 3 3 3 3 3 4 6 6 6 7 7 6 5 5 4 5 3 5 4 5 6 6 7 6
2 1 4 5 5 5 5 5 5 5 5 4 4 4 3 2 2 1 1 1 1 1 2 3 4 4 5 5 5 4 4 3 6 6 7 8 4 2 2 4 5 5 6 6 4 3 4 2 1 3 3 5 5 6 7 7 8 8 9 7 5 3 1 4 4 3 3 5 5 5 6 7 6 4 5 5 3 3 3 4 5 5 5 6 7
5 7 8 8 9 8 6 5 5 4 4 4 5 5 4 3 3 2 2 1 1 1 2 4 5 6 5 6 6 4 3 6 5 4 5 6 6 1 0 3 4 5 5 5 4 2 1 0 1 3 3 2 5 6 7 9 9 9 8 8 6 4 3 4 4 5 5 4 4 5 6 8 7 5 5 4 5 5 4 4 5 6 6 6 4
7 7 5 6 4 3 6 8 8 7 7 4 4 4 4 3 2 2 2 1 1 1 2 5 6 5 6 6 4 3 2 6 4 3 2 9 2 3 4 3 4 4 3 0 3 6 7 7 6 5 6 12 8 7 6 6 9 10 9 9 9 8 4 5 6 6 5 5 5 5 5 6 6 5 6 4 3 6 5 5 5 5 5 7 7
5 6 6 6 4 2 5 8 7 5 1 2 4 5 4 2 2 2 2 2 2 2 4 5 5 5 5 5 5 3 4 8 8 5 2 2 4 5 3 1 3 3 5 7 6 4 2 3 5 6 6 7 7 7 5 5 5 5 5 5 5 9 11 11 9 9 6 4 4 4 5 5 6 6 6 4 5 6 6 7 6 8 8 8 7
5 5 5 5 4 1 1 3 4 4 4 4 5 5 4 4 2 2 2 2 2 3 4 6 5 6 5 5 5 5 4 9 7 5 3 3 6 6 4 6 5 6 6 6 5 5 6 7 5 6 6 6 5 8 6 5 5 4 5 5 5 5 6 7 7 6 5 4 4 5 6 6 6 7 7 6 5 6 6 7 7 8 7 7 7
5 4 5 4 4 3 4 4 4 4 4 4 4 4 4 3 4 3 3 3 4 5 7 7 7 6 6 5 5 4 4 8 7 7 7 6 4 5 6 6 6 5 5 5 5 7 8 7 6 4 3 4 8 10 8 4 4 5 5 5 5 5 6 6 6 6 6 4 4 5 5 7 8 8 8 6 5 6 7 7 6 7 7 6 6
7 6 5 4 5 5 5 5 4 5 5 5 5 4 3 3 3 3 5 5 7 8 7 7 6 7 7 6 5 5 5 9 9 9 9 9 6 5 6 6 6 6 6 6 7 8 7 5 5 4 4 4 6 7 7 6 4 5 4 4 4 5 7 7 9 10 11 11 11 11 11 12 12 12 13 13 10 6 5 5 5 6 7 6 5
7 7 6 5 5 5 5 5 5 5 5 6 5 6 6 6 6 5 7 7 8 7 7 8 7 7 7 7 6 6 7 9 10 10 10 10 7 6 6 7 6 6 6 6 5 5 7 13 8 5 5 4 5 6 7 4 5 5 5 4 5 6 7 6 4 5 9 9 10 10 11 11 12 12 13 14 14 11 6 5 6 6 5 4 4
7 8 8 7 6 6 6 6 7 7 6 6 6 7 7 6 6 6 7 7 7 6 7 8 7 6 6 6 10 8 6 7 11 11 12 11 8 6 6 7 8 6 5 5 5 5 5 8 11 8 5 4 6 6 7 6 5 5 4 4 6 6 5 5 5 6 5 6 7 6 8 10 8 7 9 15 16 13 7 6 6 5 5 5 5
6 7 7 7 7 7 6 7 7 7 8 7 7 6 5 6 6 7 6 6 7 7 7 7 8 6 5 5 6 6 4 4 6 12 13 13 10 7 5 7 7 6 5 5 5 4 3 2 4 5 6 5 6 7 8 8 5 5 4 5 5 6 5 5 6 6 5 5 4 5 5 5 6 6 6 7 8 8 8 8 7 6 5 5 5
5 6 7 7 7 7 6 7 7 6 6 6 6 6 5 6 6 6 6 5 6 7 8 7 6 6 5 4 4 3 1 2 6 11 12 12 11 8 6 6 4 4 5 4 4 3 3 3 0 5 7 7 6 6 7 6 5 5 6 5 3 3 3 5 8 10 5 5 5 5 5 6 6 6 6 7 7 7 7 7 7 6 5 5 4
5 6 7 7 7 7 6 6 6 6 5 5 6 6 5 6 6 5 5 5 7 7 6 6 6 5 5 4 4 3 5 9 5 10 11 11 10 9 6 4 3 4 6 5 4 3 2 2 2 7 8 7 6 7 9 11 12 7 7 9 8 6 6 6 5 5 5 5 5 6 6 6 7 7 7 7 6 6 6 6 6 6 5 4 5
5 6 6 7 6 6 6 6 6 5 6 6 6 6 5 6 6 5 6 6 7 6 5 4 4 4 4 5 4 5 6 7 12 8 11 12 11 9 7 4 4 4 5 5 4 4 3 4 6 11 14 16 16 15 15 16 11 10 16 15 14 13 9 6 5 5 5 5 5 6 7 7 7 8 7 8 7 7 6 6 5 5 4 4 2
4 5 5 6 6 6 6 6 6 6 6 6 6 7 6 5 4 4 4 5 5 5 4 4 4 5 5 5 6 6 6 6 9 12 9 12 12 12 10 7 5 3 3 4 4 4 5 6 7 13 17 17 17 17 16 14 11 15 15 15 14 11 7 7 6 5 5 6 7 7 7 6 6 6 6 6 6 6 6 6 6 5 4 4 4
5 5 5 5 7 6 6 6 6 5 5 5 5 5 5 4 5 3 4 4 4 4 4 3 5 5 6 6 6 6 6 6 6 9 12 11 11 12 11 10 9 6 5 5 4 4 6 10 13 15 14 15 15 14 13 15 16 15 15 14 13 7 7 6 6 6 7 6 5 5 6 5 5 4 4 5 5 7 6 7 7 7 6 4 4
8 7 7 6 6 8 8 8 8 8 7 6 6 5 5 5 5 4 4 4 4 5 5 5 5 5 5 5 5 5 5 5 6 6 7 8 8 10 9 9 9 9 8 6 8 12 13 13 14 14 13 11 10 9 8 10 15 16 16 14 7 7 6 6 6 6 6 6 6 6 5 5 6 6 4 5 7 8 7 7 7 7 7 6 6
7 7 8 7 7 7 8 7 7 7 6 6 6 6 5 6 6 5 5 5 5 5 5 5 5 5 5 5 5 5 5 5 5 5 6 6 6 6 6 6 8 8 8 6 7 8 11 11 11 12 12 15 14 12 11 11 10 9 8 8 8 8 7 6 6 6 6 6 6 6 6 6 6 7 8 8 8 8 7 6 6 6 6 6 5
7 7 7 7 6 7 7 10 9 7 6 6 6 6 6 5 6 5 5 6 7 6 5 5 4 5 5 4 5 5 5 5 5 6 6 7 6 6 5 6 7 5 6 5 6 7 7 8 9 7 7 8 8 7 8 8 8 7 7 7 7 7 9 11 10 7 6 6 6 6 7 7 8 8 7 7 8 8 9 7 7 7 7 6 6
7 7 6 7 6 6 6 6 6 7 7 7 6 5 5 5 5 4 1 0 2 6 7 4 4 3 4 4 5 6 5 5 3 2 3 5 4 6 7 5 4 6 4 3 7 7 8 8 7 8 8 8 7 7 7 7 7 7 8 6 6 6 6 6 7 6 6 6 7 7 7 6 7 7 7 7 8 8 8 8 8 8 7 7 7
7 6 5 6 6 6 6 6 6 6 7 7 7 7 9 8 6 4 3 6 5 3 4 4 5 5 6 3 2 4 5 2 1 3 4 5 5 5 4 4 3 2 8 13 9 8 8 8 7 7 7 7 7 7 6 6 6 6 6 6 6 6 6 6 6 5 5 6 6 7 7 6 7 7 7 7 7 7 7 8 7 7 7 7 6
6 6 5 5 6 6 6 6 5 6 6 6 6 7 5 7 9 10 8 5 5 7 8 9 6 4 6 5 3 6 6 4 2 2 3 4 6 8 10 12 12 9 10 12 10 8 7 8 7 7 6 6 6 6 5 5 5 5 5 5 5 6 5 6 5 5 6 6 6 6 6 6 6 6 7 7 7 6 6 7 6 7 6 6 6
7 6 6 5 6 5 6 5 5 5 4 4 5 5 6 6 5 6 5 5 6 6 6 5 5 7 8 8 6 2 2 2 2 2 3 6 8 10 12 14 14 14 13 14 10 7 6 7 6 6 5 6 5 5 5 5 4 4 3 5 5 5 6 6 5 6 6 6 6 6 7 7 6 6 6 6 6 6 6 6 6 6 6 5 5
6 5 4 4 5 6 6 5 5 5 5 5 4 4 6 5 6 3 2 2 3 5 6 7 7 7 6 5 4 6 6 5 3 3 5 8 10 11 12 11 11 13 15 11 7 7 6 6 6 5 5 6 5 5 5 5 5 5 4 3 4 5 6 5 5 7 7 7 6 6 6 6 6 6 6 5 6 6 6 6 6 5 5 6 6
4 4 4 4 5 5 5 5 5 5 4 4 5 5 3 4 4 4 5 2 1 1 3 4 4 4 5 4 4 4 4 4 4 6 9 9 9 11 12 9 12 12 11 7 7 6 5 6 5 5 5 5 5 5 6 5 5 5 5 5 5 5 6 6 7 6 6 7 7 7 7 7 7 7 7 6 6 6 7 7 7 7 7 7 7
4 3 8 6 5 4 4 5 5 5 5 5 5 4 4 4 4 4 4 5 6 5 3 1 2 4 2 3 5 5 5 4 5 6 8 6 9 10 8 8 7 6 7 5 6 6 6 6 5 5 5 5 5 5 5 5 6 6 5 6 6 6 6 7 6 6 6 6 7 6 6 7 7 7 6 7 7 7 7 7 7 7 7 8 7
4 5 4 5 4 3 4 5 5 6 6 6 5 5 4 4 5 5 4 3 3 4 2 1 1 2 3 3 1 1 2 2 2 4 4 6 3 5 7 5 6 5 5 4 5 5 5 5 5 5 4 4 4 5 5 5 5 6 6 6 6 6 6 6 6 6 6 6 6 6 6 7 7 6 6 6 6 6 6 6 7 7 7 7 7
4 4 4 4 4 4 3 2 1 2 4 3 2 0 1 4 5 5 5 4 2 2 3 3 1 0 2 0 2 2 2 2 3 2 4 2 4 4 6 5 6 4 4 5 5 5 6 5 5 4 4 5 5 5 5 5 5 6 6 6 6 6 6 6 6 5 6 6 5 5 5 5 5 6 6 7 6 6 6 7 6 7 7 10 10
3 4 3 3 3 3 4 3 1 1 1 0 2 4 3 1 1 4 6 5 4 4 4 3 4 4 3 4 3 1 0 1 3 5 6 7 5 6 5 5 4 5 5 3 4 5 5 4 4 5 5 5 5 5 5 5 5 6 6 6 6 6 8 7 7 5 4 4 4 4 4 4 5 5 5 6 6 6 6 6 6 6 7 9 7
3 4 4 4 3 3 2 1 0 2 2 2 4 4 3 3 4 4 3 5 5 5 5 5 5 5 5 2 0 1 2 2 2 2 2 3 3 4 5 5 5 4 4 5 5 5 6 5 3 4 5 6 6 5 5 4 5 6 6 6 6 6 6 5 5 4 4 4 4 3 3 3 3 3 4 5 5 5 5 6 6 6 6 7 7
3 2 1 3 1 0 0 1 0 1 1 3 4 4 3 3 4 4 3 4 4 4 5 6 5 5 3 1 1 1 2 1 1 1 2 2 3 3 4 5 5 6 6 6 6 6 6 5 5 6 6 6 6 6 6 6 6 6 6 6 5 5 5 4 3 3 3 2 2 3 3 4 4 3 3 3 4 5 6 6 6 6 6 6 7
1 1 1 2 1 0 1 1 1 2 2 2 4 5 4 2 2 3 4 4 3 3 2 2 2 1 1 2 6 4 1 0 2 5 2 4 3 3 5 5 5 5 5 6 6 6 6 6 6 6 6 5 6 6 5 6 6 6 6 5 4 4 3 3 3 2 2 3 3 4 4 4 4 5 5 4 6 5 5 5 6 5 6 6 6
3 2 0 0 2 3 4 3 3 4 4 2 3 3 2 1 2 3 3 4 4 5 5 4 3 3 3 7 6 5 3 1 1 3 5 6 5 5 5 5 5 5 5 6 6 7 7 6 6 6 6 5 5 5 5 6 5 5 5 4 4 4 3 3 3 2 3 3 4 3 3 5 5 5 5 6 5 5 5 5 5 6 6 6 6
2 2 1 1 1 4 4 3 4 4 3 2 1 2 3 5 5 5 5 5 5 6 6 5 5 3 3 3 6 8 7 6 6 6 6 6 6 5 6 6 5 5 6 6 6 6 7 7 6 6 5 5 4 4 5 5 5 5 4 4 3 3 3 2 2 2 3 4 4 4 4 5 5 5 5 5 5 4 5 6 6 6 7 7 7
2 1 1 0 0 0 2 4 3 3 3 4 4 4 6 5 6 6 6 6 5 5 6 5 5 5 4 5 7 7 6 7 7 7 7 7 7 6 5 5 6 6 6 6 5 5 6 6 6 5 4 4 4 5 5 4 3 3 4 3 3 2 1 1 2 3 3 4 5 5 5 4 5 5 5 5 4 4 5 6 6 7 7 7 7
1 1 1 2 2 4 1 3 4 4 3 5 5 5 5 6 6 6 6 6 5 5 4 4 3 5 4 6 6 6 6 6 6 7 7 7 7 6 6 6 6 6 6 6 5 5 5 6 6 6 5 5 5 5 5 4 4 4 4 4 3 2 1 2 3 3 3 3 4 4 5 5 5 5 5 4 4 5 6 7 7 9 8 7 7
1 2 1 0 3 5 5 5 3 4 5 6 7 6 6 5 5 6 6 6 6 6 5 5 6 6 7 7 6 6 6 6 6 6 6 6 6 6 6 6 6 6 5 5 4 5 5 6 6 6 6 5 5 4 4 4 3 3 3 3 2 1 1 2 2 2 3 4 4 4 5 5 5 5 8 6 5 6 6 7 7 7 6 7 8
1 1 1 1 5 5 5 4 4 4 5 4 4 5 7 7 5 4 5 7 7 6 6 6 7 7 7 7 7 6 6 6 6 6 6 6 6 6 6 6 6 6 5 5 4 5 4 5 6 6 6 5 5 5 4 3 3 3 2 2 1 1 2 2 3 3 3 3 3 3 4 5 5 5 7 6 6 7 8 7 7 8 7 7 7
0 0 1 1 1 5 4 4 3 4 4 4 5 5 6 5 5 5 6 7 7 6 6 7 7 7 7 6 6 6 6 6 6 5 6 6 6 6 5 5 6 6 5 4 4 5 5 5 6 6 6 6 5 5 4 3 3 3 2 1 1 1 2 3 2 2 2 3 3 3 4 5 5 5 5 6 6 6 7 7 7 7 8 8 8
1 2 1 3 4 5 5 5 4 5 6 6 4 5 5 5 4 4 4 6 6 6 7 7 6 6 6 6 6 6 6 6 6 6 6 6 6 6 6 5 5 5 5 5 5 4 4 5 5 6 6 5 5 5 4 3 3 3 3 2 2 1 2 2 1 1 2 3 3 4 4 3 4 5 5 6 6 6 7 7 7 8 8 8 8
2 1 0 4 3 2 3 4 5 4 3 4 7 7 6 6 6 6 6 6 6 6 7 7 7 7 7 6 6 6 6 6 6 6 7 6 6 5 5 4 4 4 5 4 3 3 4 4 5 5 5 5 4 4 3 3 3 3 3 3 5 3 1 1 0 1 3 3 3 3 4 4 5 5 5 6 6 7 7 8 8 8 7 7 7
1 1 0 2 4 4 5 6 6 6 6 5 6 7 6 6 6 6 6 6 7 7 7 7 7 6 6 7 6 7 6 6 6 6 6 5 4 4 4 4 5 4 4 4 3 4 4 4 5 5 4 4 4 4 4 3 4 4 5 6 6 5 3 1 1 3 3 3 3 3 4 5 5 6 6 6 7 7 8 9 7 6 6 6 6
Wind_Direction
185 190 189 196 197 199 204 201 205 204 206 207 212 220 228 224 222 222 213 217 218 220 212 198 195 198 196 201 205 203 206 213 212 211 207 214 215 217 220 213 222 240 246 264 258 243 236 232 248 262 273 267 270 306 342 312 286 253 240 209 204 184 173 182 216 262 285 250 241 261 303 326 305 318 332 323 320 327 337 325 321 301 270 254 261
184 187 191 194 200 202 207 205 205 203 204 210 211 219 224 224 228 232 225 224 213 222 199 202 230 207 198 203 204 204 208 212 214 209 210 215 225 219 221 214 213 223 210 258 277 308 4 314 299 310 332 328 19 331 261 285 275 300 288 243 237 228 204 173 215 218 262 304 299 293 285 273 291 277 312 315 315 322 324 323 320 319 304 297 273
178 176 185 192 203 206 206 212 211 210 209 210 212 214 220 224 223 223 227 230 214 205 188 199 211 215 211 206 205 206 205 212 214 209 211 211 218 222 212 204 204 196 186 189 174 154 187 196 297 300 254 289 299 297 312 299 301 282 259 234 240 245 215 206 194 240 256 268 248 267 256 290 237 279 297 287 289 289 298 306 309 300 303 236 306
102 107 112 216 212 207 214 216 214 217 218 220 218 211 209 216 222 222 225 223 211 202 196 199 202 202 210 209 208 214 211 212 213 209 209 207 209 212 200 193 190 194 197 199 177 163 196 220 219 223 248 256 267 282 273 269 279 274 272 262 229 239 223 205 220 222 247 260 283 232 266 274 282 269 274 288 288 294 269 285 299 296 305 326 319
139 152 135 103 29 341 272 223 220 215 218 221 222 206 179 172 165 162 184 182 194 208 235 212 196 195 204 205 208 210 211 208 202 195 198 201 204 200 194 194 202 207 211 217 195 186 200 206 223 228 211 230 243 243 250 267 271 281 278 269 237 235 222 204 232 226 238 254 278 290 286 280 263 285 289 296 307 299 294 296 297 302 294 292 301
158 126 123 136 138 130 318 296 228 211 216 213 206 188 175 167 139 118 126 120 66 80 163 207 234 217 205 203 204 207 206 200 190 189 190 187 191 193 195 201 207 206 216 225 219 217 191 187 206 214 210 214 232 238 245 246 256 261 260 269 270 238 250 266 254 243 229 249 250 295 309 275 311 289 292 297 296 307 316 313 318 303 293 301 292
160 149 151 156 156 153 164 234 310 263 198 197 190 179 176 170 135 117 113 93 93 105 63 52 207 202 225 226 217 211 199 192 189 187 186 185 189 193 200 209 210 212 229 242 235 218 205 207 214 211 214 218 226 231 239 273 300 314 304 287 274 258 261 275 277 263 253 266 278 245 270 277 258 291 305 311 285 273 286 310 307 300 311 262 290
170 169 165 172 181 178 170 157 202 268 257 180 159 142 118 111 113 105 82 90 119 137 159 157 95 40 244 209 124 62 69 101 188 195 188 188 186 193 199 200 167 44 16 306 278 254 221 213 213 216 220 221 222 242 226 265 297 298 299 322 328 320 306 302 295 280 280 283 272 290 272 288 306 281 301 333 325 312 246 242 278 293 296 283 243
188 189 187 186 190 187 179 178 180 204 211 158 139 121 121 130 132 122 108 115 103 234 230 153 119 93 81 95 103 97 96 67 30 360 228 188 173 180 181 131 107 173 205 250 282 259 219 211 216 225 231 233 227 219 216 226 226 272 284 266 271 269 269 274 269 272 297 308 297 289 294 296 286 295 303 295 276 269 280 272 274 276 295 307 297
189 186 196 199 191 186 182 175 173 170 151 132 127 120 114 112 116 131 142 136 152 266 50 116 114 122 116 99 91 92 86 82 38 25 22 3 201 162 138 135 164 164 172 249 261 268 266 220 233 235 238 250 263 273 308 330 319 286 253 222 237 246 254 273 271 275 272 267 265 283 288 282 280 271 273 268 278 305 325 326 301 303 315 299 290
292 223 220 197 179 178 166 148 141 135 135 120 108 96 78 69 64 75 69 74 81 74 102 108 103 88 84 87 77 59 49 44 50 59 44 14 16 38 114 152 158 151 187 214 242 235 225 226 269 321 345 18 25 18 16 5 1 356 347 327 300 268 357 305 289 269 240 255 271 282 281 283 281 287 283 292 301 311 299 301 294 308 303 306 308
43 30 6 14 20 12 8 31 50 47 63 68 80 80 78 61 46 42 85 85 86 70 106 122 107 93 90 89 80 72 60 24 8 38 94 68 18 345 214 184 177 181 196 210 226 224 221 307 25 29 9 13 47 18 4 1 359 349 342 341 339 303 211 241 284 301 288 298 305 297 299 290 293 303 303 307 302 300 289 296 289 289 291 287 286
86 66 30 56 38 36 44 39 25 9 348 39 71 93 90 77 73 65 40 37 90 92 64 86 96 98 102 98 79 66 65 11 347 1 6 90 82 290 264 228 184 182 202 186 29 11 5 359 326 33 23 31 28 13 3 347 344 346 354 357 356 21 11 300 267 264 285 307 302 301 296 314 317 316 315 304 313 299 296 291 294 283 278 284 284
124 128 135 134 180 174 125 130 141 142 161 58 62 69 74 78 59 36 33 32 56 54 76 86 83 83 83 86 91 54 41 359 344 337 24 142 188 211 220 212 106 85 77 72 76 64 32 6 7 35 25 26 14 3 353 346 339 341 353 1 9 46 61 39 26 20 17 355 335 318 321 329 313 310 311 303 293 291 291 287 274 274 276 280 289
104 100 98 117 130 103 42 60 84 90 88 82 79 68 63 49 354 357 45 76 92 96 96 94 80 68 58 50 58 46 24 354 346 350 329 186 182 174 143 102 94 81 73 77 73 69 67 81 69 35 21 20 10 2 352 345 347 358 9 13 23 53 41 34 11 357 360 348 333 333 338 336 324 322 320 314 288 283 276 269 272 273 280 282 274
90 79 72 75 90 106 90 69 63 69 72 79 94 113 129 167 163 148 103 75 69 76 73 74 74 65 56 53 63 44 359 357 3 13 26 49 75 99 105 101 97 91 80 79 78 74 78 81 83 84 55 21 6 360 355 5 20 24 26 19 34 38 33 22 2 356 9 17 33 39 30 32 35 26 14 354 315 305 301 296 293 296 293 297 294
93 80 62 52 58 58 67 73 61 53 60 71 62 56 74 117 122 109 81 59 63 65 71 73 68 64 50 32 30 24 4 357 360 34 39 32 70 82 89 92 89 87 80 79 89 101 103 94 87 77 59 40 6 358 353 45 47 41 32 37 39 36 16 1 354 8 27 50 43 39 36 26 19 18 17 16 19 349 324 325 342 339 319 313 323
84 85 79 62 56 60 64 74 77 67 58 59 62 61 58 57 62 66 82 79 73 76 87 84 74 73 70 55 37 21 7 351 359 28 42 52 59 72 78 83 78 85 86 75 72 71 80 82 77 61 50 36 7 1 4 49 62 51 42 40 40 31 16 357 350 19 34 40 39 34 32 29 19 11 17 21 27 28 21 23 328 320 334 338 332
85 93 98 102 99 89 86 83 83 84 81 75 71 66 60 70 76 78 84 92 89 83 76 80 77 62 63 74 70 57 5 349 358 29 40 42 57 56 62 74 74 62 74 72 62 65 58 63 69 60 50 31 23 14 11 43 59 41 29 44 39 36 8 346 352 29 35 32 24 24 24 26 23 20 15 22 27 30 27 17 348 4 4 6 1
99 99 102 103 103 101 99 98 96 95 92 86 83 80 83 77 68 77 71 73 82 80 84 81 77 68 60 60 59 58 38 359 11 28 40 38 44 69 68 86 86 80 81 94 86 61 63 99 89 83 59 51 41 34 26 23 54 35 28 40 29 25 349 343 36 57 40 47 38 28 26 15 20 19 14 16 19 20 20 18 17 15 33 41 35
107 105 106 104 100 98 95 101 103 98 97 98 92 85 83 89 84 80 83 81 83 77 74 73 73 67 54 42 55 58 78 36 33 41 41 39 38 54 63 69 81 93 89 83 73 79 41 31 207 76 42 51 46 43 45 37 32 47 36 34 10 294 297 28 40 50 47 41 38 31 26 20 17 13 14 16 17 16 16 16 20 23 24 35 38
95 99 100 101 103 102 105 98 95 95 93 93 91 86 81 84 85 88 85 86 84 77 71 69 73 70 53 55 58 35 35 44 35 36 36 34 33 35 58 45 31 77 70 62 49 44 1 7 354 26 37 56 70 66 53 51 50 52 40 45 47 52 52 51 47 42 38 36 32 33 26 20 18 11 13 11 8 4 8 9 8 14 24 36 46
105 107 107 108 105 104 100 100 99 99 97 96 98 95 88 89 91 93 94 85 82 85 85 89 90 82 70 55 44 38 25 30 35 39 33 33 33 38 44 49 29 56 74 54 24 10 2 14 31 55 70 72 73 71 65 58 52 46 45 42 41 39 45 44 43 38 33 27 31 29 28 24 23 18 13 8 1 358 358 358 358 4 3 6 42
93 93 97 95 95 91 90 90 93 95 101 101 95 93 88 87 86 84 86 96 103 97 86 82 71 68 66 51 41 32 26 22 24 29 32 31 29 29 34 42 35 46 52 49 18 24 41 53 80 84 80 78 74 68 63 61 57 49 44 44 42 39 38 38 34 30 38 39 38 32 30 24 21 19 9 358 357 358 5 7 0 357 353 343 337
80 80 83 85 80 75 68 67 73 76 77 85 90 92 92 91 90 84 101 99 105 108 112 98 81 75 64 58 40 31 19 23 18 16 20 25 22 21 20 24 32 35 48 29 40 47 86 99 88 80 79 77 74 71 63 56 54 50 46 42 44 36 36 37 37 38 41 36 36 33 31 16 9 359 341 352 357 9 7 4 1 8 5 359 357
91 91 87 82 85 88 82 72 65 63 66 63 65 63 83 84 81 61 72 90 104 111 104 90 88 82 80 65 57 42 29 25 20 13 10 11 15 9 19 25 36 48 63 60 73 96 100 88 81 78 72 71 68 66 64 59 54 48 43 40 34 35 33 32 32 43 40 32 29 24 9 358 355 345 354 4 16 14 0 4 0 3 358 2 6
86 87 89 88 85 86 87 87 79 64 59 66 65 62 62 76 78 66 63 77 84 87 82 92 89 85 83 77 70 57 43 32 18 11 11 7 9 360 19 28 30 51 51 48 60 73 77 79 83 79 75 68 68 65 64 55 49 43 39 38 37 32 30 29 29 33 30 28 25 17 10 1 359 10 11 9 12 6 359 357 3 353 354 350 6
90 91 91 90 82 84 86 84 86 78 61 61 62 62 56 65 76 70 75 82 98 85 90 83 87 100 100 86 77 64 49 40 28 12 5 3 1 4 19 31 33 29 52 42 59 71 73 72 70 64 68 65 59 59 55 52 50 48 43 37 37 35 38 41 45 40 32 31 30 26 22 18 21 14 12 18 19 12 4 4 5 353 359 352 19
90 85 85 87 89 91 90 89 91 92 88 75 67 50 41 48 79 84 28 224 52 111 113 105 101 92 90 87 92 80 65 54 27 358 355 356 353 358 22 19 10 33 30 44 79 64 66 63 60 57 54 61 58 54 54 53 51 43 43 39 35 33 32 31 36 33 32 36 35 30 25 20 20 14 14 19 18 13 9 15 16 11 8 19 31
88 86 85 89 92 88 86 87 90 93 93 96 91 75 59 62 24 76 84 28 15 349 121 134 149 134 101 59 43 112 107 112 48 4 344 348 354 357 319 299 260 54 69 67 71 72 63 66 55 61 59 59 60 54 50 48 48 43 36 31 32 32 33 32 28 20 29 38 33 33 25 24 22 15 15 17 9 9 10 19 14 13 18 13 11
99 102 103 104 106 104 101 95 93 91 95 98 97 100 86 46 45 37 37 46 32 49 89 115 124 142 126 128 72 66 84 95 59 354 10 6 17 28 44 66 73 73 83 76 54 64 67 67 64 62 67 64 61 56 48 46 42 47 40 32 32 32 31 32 17 17 31 30 33 33 28 27 20 14 16 13 12 4 10 15 13 14 14 360 359
115 123 122 119 113 111 118 120 111 106 96 95 99 106 106 96 46 33 40 34 24 42 51 60 89 113 127 135 138 102 131 141 124 76 48 43 46 56 66 77 80 77 73 85 79 68 70 79 73 65 66 65 58 59 56 54 44 46 41 42 32 27 33 26 6 29 34 36 35 34 28 25 21 20 18 14 15 10 6 9 6 1 359 352 353
114 130 132 128 127 129 128 129 135 132 138 135 135 135 124 128 122 98 4 37 71 67 56 53 49 41 51 70 95 134 148 154 141 109 83 65 65 76 76 69 81 90 77 73 92 82 75 79 79 69 66 67 56 53 49 49 42 35 34 38 32 15 30 28 33 46 41 40 42 37 29 23 20 16 15 9 11 6 2 3 352 348 346 346 341
124 131 137 139 134 138 138 137 137 151 153 153 162 159 161 144 148 149 131 107 64 32 83 87 69 50 60 61 94 98 128 129 100 67 57 63 96 98 90 78 65 58 87 104 91 97 88 86 78 76 73 71 62 54 44 35 34 36 31 26 23 24 42 44 49 41 42 36 38 32 26 20 16 15 7 7 4 4 0 357 351 349 345 341 335
45 95 121 115 130 149 162 153 155 158 168 180 187 186 170 166 162 163 179 173 175 172 170 149 76 77 15 359 25 19 14 18 39 48 58 76 122 126 101 77 72 55 57 74 93 100 99 95 95 86 86 79 73 71 63 50 46 41 42 52 49 44 43 47 48 43 39 37 38 32 28 24 17 15 9 4 5 4 358 354 352 347 343 340 337
87 76 65 81 91 106 135 158 166 167 184 195 205 202 182 175 174 178 198 234 194 161 123 64 349 4 21 5 81 22 11 355 10 38 71 81 136 122 89 93 87 93 99 99 107 104 104 105 99 94 86 81 75 70 66 64 58 62 59 65 67 59 54 49 46 44 39 41 36 30 28 25 17 11 6 3 6 359 348 350 347 342 343 341 340
98 90 86 85 90 90 97 106 121 158 159 170 150 342 199 189 187 179 187 199 157 115 127 112 86 199 345 285 165 208 202 268 291 75 73 88 114 94 116 125 129 121 119 117 110 108 96 92 96 90 78 77 68 70 69 67 68 69 68 68 71 71 66 65 56 51 45 40 32 29 30 25 15 11 7 2 351 352 349 348 344 341 341 339 341
110 131 139 134 115 113 114 139 172 85 29 86 124 124 103 59 172 174 178 176 164 149 134 157 156 176 198 242 230 226 144 288 59 55 46 65 83 103 118 134 141 139 126 106 106 111 108 101 92 90 79 78 75 69 71 68 70 74 75 71 66 69 72 65 58 52 52 43 35 19 21 16 14 9 8 1 346 339 345 341 337 337 336 335 335
141 158 155 127 117 121 125 88 20 61 56 93 98 105 99 85 80 83 124 161 164 154 161 162 176 194 226 240 276 20 61 31 43 16 41 71 98 117 125 118 111 103 105 108 108 107 114 107 96 88 79 72 69 59 59 60 64 71 76 78 71 59 59 56 58 49 53 45 28 11 14 3 350 360 7 355 336 334 333 331 329 331 330 325 322
139 124 124 113 80 49 42 79 50 89 125 103 90 94 94 95 95 111 115 123 142 158 157 165 187 204 200 160 176 81 73 52 325 289 290 77 122 133 120 110 103 105 110 111 115 114 103 93 83 76 69 64 62 61 52 56 56 65 71 76 77 67 56 54 53 52 42 32 14 347 333 321 317 334 339 327 316 324 329 325 324 323 316 316 316
109 219 158 126 146 48 79 70 75 102 92 94 108 109 117 116 124 114 119 138 145 134 131 146 164 148 116 81 76 86 103 16 278 269 234 142 132 104 90 102 111 106 103 105 100 88 87 82 74 75 71 69 67 68 68 69 72 73 75 77 78 76 62 44 35 32 15 360 347 345 335 324 332 343 338 319 334 331 318 316 312 310 312 312 317
56 27 327 359 69 74 89 93 92 104 113 122 117 119 115 106 77 60 81 112 108 102 101 96 88 77 92 116 124 126 94 29 65 61 68 80 84 79 85 76 69 81 89 93 98 97 90 85 79 78 79 76 80 80 82 80 82 86 85 81 76 71 58 37 28 12 1 346 330 330 332 332 334 342 331 331 326 321 319 318 316 318 317 321 321
69 46 16 36 89 125 125 136 131 121 109 105 120 91 94 95 93 103 109 117 122 119 114 109 111 110 88 60 104 98 79 75 72 74 74 74 75 72 69 68 68 71 79 84 89 99 101 99 98 98 103 106 110 108 99 99 98 96 91 88 74 61 41 32 1 347 340 338 329 329 335 331 335 333 323 327 324 328 330 331 327 325 322 324 326
63 33 3 73 126 255 140 139 130 120 117 94 80 98 103 92 87 90 96 99 102 102 105 103 104 91 77 57 69 82 86 85 88 89 87 79 74 74 75 76 79 80 81 83 86 92 98 99 97 90 83 79 72 69 74 73 77 86 90 90 81 76 35 348 344 336 341 338 329 337 329 338 343 335 327 328 330 337 335 322 326 321 323 323 324
88 64 355 308 174 166 141 115 122 123 111 84 80 96 106 107 103 101 102 104 105 106 110 111 101 88 77 71 77 82 83 86 92 96 96 100 101 100 97 92 89 90 92 95 100 102 102 104 105 102 94 81 75 79 79 76 77 87 100 108 101 71 338 325 313 332 4 352 338 336 338 343 339 328 315 314 334 336 329 323 321 329 327 323 324
87 12 11 120 159 141 134 130 124 117 108 107 108 105 95 98 111 113 111 109 112 112 107 98 91 92 97 98 95 93 95 95 93 97 99 95 97 97 98 101 101 101 104 112 115 111 113 117 119 119 116 113 105 98 94 101 103 109 116 122 132 138 313 316 326 12 12 1 347 342 336 340 333 331 339 340 334 328 325 319 320 318 318 320 319
69 325 310 170 160 136 140 141 136 123 111 107 110 119 123 127 124 119 117 122 121 118 113 108 107 113 117 120 119 118 113 111 113 107 110 113 110 112 112 112 112 112 113 107 104 101 103 109 121 125 126 126 124 126 132 134 132 128 122 127 118 53 18 360 16 21 8 355 349 346 339 333 329 328 327 326 321 323 324 319 319 319 316 317 316
119 182 181 163 150 130 136 132 114 100 93 116 132 134 136 135 131 129 126 125 125 123 118 121 125 127 124 127 131 128 125 122 124 125 119 118 123 125 129 128 127 130 124 117 120 126 127 127 126 127 130 136 139 143 149 154 154 152 157 173 176 151 51 41 25 5 342 336 342 338 331 327 320 317 319 321 319 317 318 315 317 317 321 320 322
6 63 78 134 138 139 137 132 132 134 136 134 129 114 110 105 102 100 119 130 129 131 129 127 128 129 131 138 135 133 132 131 132 135 132 134 140 149 146 144 139 136 132 136 140 137 135 130 130 135 140 143 146 148 157 162 174 184 195 215 231 186 70 50 60 329 336 342 339 340 337 326 319 318 316 317 314 314 311 313 314 320 321 323 327
56 62 140 111 113 126 113 107 101 93 94 119 129 128 127 123 124 124 121 118 116 122 130 134 140 145 142 140 140 144 145 144 145 144 149 154 154 150 142 131 127 133 138 145 141 125 110 117 124 127 135 144 151 156 167 175 188 203 212 225 228 212 160 23 4 347 344 340 331 329 320 312 307 308 309 308 307 312 315 319 320 326 327 324 328
36 85 189 119 101 113 115 117 113 107 101 93 98 106 109 110 117 125 126 125 128 133 137 143 142 139 143 151 154 157 159 159 157 155 151 144 141 134 134 126 121 117 107 99 93 91 98 112 120 134 142 151 159 171 181 194 200 211 222 228 229 211 178 164 291 310 322 321 316 321 327 322 317 313 313 313 314 311 319 324 333 328 322 321 317